Simultaneous Nadir Overpasses (SNOs) Predictions

Prediction of SNOs between GOES-15 and TERRA Satellite Orbit:

Table of predicted SNOs for the next 14.0 days since TLE Epoch: 8/3/2024
Index Date Time (GOES-15) GOES-15 Lat,Lon TERRA Lat,Lon Distance(km) Time Diff (sec)
1 08/04/2024 05:27:29 -0.01, 61.41 -0.65, 64.39 339.03 80
2 08/04/2024 17:44:49 0.05, 61.55 -0.39, 59.53 229.54 80
3 08/06/2024 17:29:53 0.04, 61.61 0.48, 63.78 245.78 80
4 08/07/2024 05:47:06 -0.08, 61.51 0.48, 58.93 292.97 80
5 08/09/2024 05:32:10 -0.07, 61.57 -0.43, 63.17 182.50 80
6 08/09/2024 17:49:30 0.11, 61.71 -0.60, 58.31 386.28 80
7 08/11/2024 17:34:33 0.09, 61.79 0.28, 62.56 88.91 80
8 08/12/2024 05:51:45 -0.13, 61.68 0.71, 57.73 449.79 80
9 08/14/2024 05:36:47 -0.11, 61.77 -0.15, 61.98 24.70 80
10 08/16/2024 05:19:09 -0.09, 61.86 -1.04, 66.24 498.67 80
11 08/16/2024 17:36:29 0.13, 62.00 0.02, 61.37 70.66 80
